Regional Weather Roundup
Issued by NWS Bismarck, ND

Home | Current Version | Previous Version | Text Only | Print | Product List | Glossary On
Versions: 1 2 3 4 5 6 7 8 9 10 11 12 13 14 15 16 17 18 19 20 21 22 23 24 25 26 27 28 29 30 31 32 33 34 35 36 37 38 39 40 41 42 43 44 45 46 47 48 49 50
000
ASUS43 KBIS 282102
RWRBIS

NWR BROADCAST TEXT
NATIONAL WEATHER SERVICE BISMARCK ND
400 PM CDT FRI AUG 28 2015

NOTE: "FAIR" INDICATES FEW OR NO CLOUDS BELOW 12,000 FEET WITH NO
SIGNIFICANT WEATHER AND/OR OBSTRUCTIONS TO VISIBILITY.


CITY           SKY/WX    TMP DP  RH WIND       PRES   REMARKS
WILLISTON      MOSUNNY   90  48  23 W12       29.88F HAZE
MINOT          SUNNY     85  56  37 W5        29.85F
MINOT AFB      SUNNY     87  58  38 N1        29.84F
BISMARCK       SUNNY     89  65  44 S10       29.87F HX  91
DICKINSON      MOSUNNY   90  46  21 CALM      29.91F
GARRISON         N/A     86  30  13 S6        29.88S
HETTINGER ARPT SUNNY     89  52  28 W13       29.96F
JAMESTOWN      MOSUNNY   81  67  62 S12       29.87F
HAZEN            N/A     86  57  37 SW3       29.88S
STANLEY        FAIR      88  55  33 W8        29.89F
$$

CITY           SKY/WX    TMP DP  RH WIND       PRES   REMARKS
GRAND FORKS    PTSUNNY   84  68  58 SW20G25   29.81S
GRAND FORKS AF SUNNY     85  67  54 SW18G24   29.82R
DEVILS LAKE    SUNNY     84  64  51 SW9       29.83S
FARGO          SUNNY     83  66  56 S20       29.88F
CAVALIER       FAIR      84  66  54 W6        29.79F
GRAFTON        FAIR      86  68  54 SW14G20   29.80S
GWINNER        FAIR      79  68  69 S14       29.92F
LANGDON        FAIR      86  64  48 W12       29.84R
$$

CITY           SKY/WX    TMP DP  RH WIND       PRES   REMARKS
ABERDEEN       MOSUNNY   78  67  68 S10       29.93F
MOBRIDGE       SUNNY     82  71  69 SE14      29.91F
BUFFALO          N/A     87  51  28 W12       29.93F
RAPID CITY     SUNNY     87  56  34 NE6       30.03F
GLASGOW        PTSUNNY   88  39  17 NW14      29.91F HAZE
SIDNEY         PTSUNNY   91  50  24 W13       29.89S
WOLF POINT     CLOUDY    89  47  23 SW13      29.90S HAZE
GLENDIVE       PTSUNNY   90  46  22 W12       29.94S
MILES CITY     CLOUDY    88  43  20 W9G17     29.97F HAZE
BAKER          MOSUNNY   86  47  25 W14       29.99S HAZE
$$

CITY           SKY/WX    TMP DP  RH WIND       PRES   REMARKS
BILLINGS       PTSUNNY   86  43  22 SW8       30.06F HAZE
GREAT FALLS    PTSUNNY   91  25   9 SW15G24   29.97F
$$



USA.gov is the U.S. government's official web portal to all federal, state and local government web resources and services.